Regional Weather Roundup
Issued by NWS

Home | Current Version | Previous Version | Graphics & Text | Print | Product List | Glossary On
Versions: 1 2 3 4 5 6 7 8 9 10 11 12 13 14 15 16 17 18 19 20 21 22 23 24 25 26 27 28 29 30 31 32 33 34 35 36 37 38 39 40 41 42 43 44 45 46 47 48 49 50
000
ASUS43 KLOT 250510
RWRIL

ILLINOIS REGIONAL WEATHER ROUNDUP
NATIONAL WEATHER SERVICE CHICAGO/ROMEOVILLE IL
1200 AM CDT FRI APR 25 2014

NOTE: "FAIR" INDICATES FEW OR NO CLOUDS BELOW 12,000 FEET WITH NO
SIGNIFICANT WEATHER AND/OR OBSTRUCTIONS TO VISIBILITY.

* THESE STATIONS ARE NOT UNDER NWS QUALITY CONTROL. THEY ALSO MAY NOT
  REPORT WEATHER SUCH AS PRECIPITATION OR FOG.

ILZ001-002-007-009-015-016-024-250600-
NORTHWEST ILLINOIS

CITY           SKY/WX    TMP DP  RH WIND       PRES   REMARKS
MOLINE         CLOUDY    52  50  93 NW13      29.68R
STERLING*      CLOUDY    52  48  87 NE10      29.64F
SAVANNA*       CLOUDY    53  52  96 NW9       29.68R FOG
$$

ILZ003-004-008-010-011-017-018-250600-
NORTH CENTRAL ILLINOIS

CITY           SKY/WX    TMP DP  RH WIND       PRES   REMARKS
ROCKFORD       RAIN      51  46  83 NE3       29.71R
FREEPORT*      CLOUDY    51  49  93 NW13G20   29.69R
ROCHELLE*      RAIN      50  46  85 N12       29.67R
DE KALB*       LGT RAIN  50  41  73 E7        29.64S
$$

ILZ005-006-012>014-019>023-250600-
NORTHEAST ILLINOIS

CITY           SKY/WX    TMP DP  RH WIND       PRES   REMARKS
CHICAGO-OHARE  LGT RAIN  52  38  58 E6        29.63F
CHICAGO-MIDWAY LGT RAIN  58  32  37 SE13      29.63F
AURORA         LGT RAIN  55  39  54 E10       29.62F
LANSING*       CLOUDY    56  30  36 SE14      29.65F
JOLIET*        CLOUDY    56  34  43 SE10G20   29.63R
WAUKEGAN       LGT RAIN  45  34  65 E12       29.66F
DUPAGE AIRPORT LGT RAIN  53  39  59 E5        29.63F
KANKAKEE*      CLOUDY    56  38  50 SE9       29.65F
WHEELING       LGT RAIN  52  34  50 E8        29.66F
MORRIS*        RAIN      56  38  52 SE10      29.62S
ROMEOVILLE*    CLOUDY    57  34  41 SE16G22   29.62S
NORTHERLY ISL    N/A     49  40  71 E6          N/A
$$

LMZ740>746-250600-
SOUTHERN LAKE MICHIGAN

STATION/POSITION SKY/WX   TEMP    WIND        PRES    VSBY  WAVE
                          AIR SEA DIR/SP/G                  HT/PER
                          (F)     (DEG/KT/KT) (MB)    (MI)  (FT/S)
WAUKEGAN HARBOR            44     130/  5/  6 1006.4F
HARRISON CRIB              48     100/ 14/ 15   N/A
BURNHAM HARBOR             50     100/  8       N/A
CALUMET HARBOR             57     110/ 12/ 17 1004.9F
MICHIGAN CITY              54     100/ 12/ 18   N/A
$$

ILZ025>027-034>036-040-047-049-050-058-095>099-250600-
WEST-CENTRAL ILLINOIS

CITY           SKY/WX    TMP DP  RH WIND       PRES   REMARKS
QUINCY         CLOUDY    52  50  93 NW20G25   29.71R
GALESBURG*     CLOUDY    52  52 100 NW9G18    29.66R FOG
MACOMB*        LGT RAIN  52  52 100 NW13      29.70R
JACKSONVILLE*  CLOUDY    55  54  97 NW17G24   29.66R FOG
PITTSFIELD*    CLOUDY    55  52  89 NW12G20   29.68S
$$

ILZ028>032-037-038-041>044-048-051>054-059>061-250600-
CENTRAL ILLINOIS

CITY           SKY/WX    TMP DP  RH WIND       PRES   REMARKS
PONTIAC        LGT RAIN  57  54  88 SE8       29.62S
BLOOMINGTON    CLOUDY    56  53  89 SW8       29.64R
DECATUR        CLOUDY    57  55  93 SW6       29.64F
PEORIA         CLOUDY    57  52  83 W6        29.62F
LACON*         CLOUDY    57  52  82 W8        29.60R
LINCOLN*       CLOUDY    58  55  90 S5        29.62S
SPRINGFIELD    CLOUDY    58  55  90 S8        29.63F
TAYLORVILLE    CLOUDY    54  54 100 S6        29.64S
$$

ILZ033-039-045-046-055>057-062-063-250600-
EAST-CENTRAL ILLINOIS

CITY           SKY/WX    TMP DP  RH WIND       PRES   REMARKS
CHAMPAIGN      LGT RAIN  57  54  89 SE7       29.63F
RANTOUL*       LGT RAIN  58  54  86 SE8       29.64F
MATTOON        LGT RAIN  56  56 100 S3        29.64F
PARIS*         CLOUDY    56  53  89 CALM      29.67F
$$

ILZ079-100>102-250600-
SOUTHWEST ILLINOIS

CITY           SKY/WX    TMP DP  RH WIND       PRES   REMARKS
ALTON          RAIN      58  58 100 S8        29.67F
BELLEVILLE     LGT RAIN  57  57 100 S1        29.66F
CAHOKIA*       LGT RAIN  58  57  97 S3        29.68S
SPARTA*        TSTM      55  55 100 SW5       29.68F
$$

ILZ064>066-069>071-074>076-080>082-084>086-088>090-092>094-250600-
SOUTH-CENTRAL ILLINOIS

CITY           SKY/WX    TMP DP  RH WIND       PRES   REMARKS
CARBONDALE     LGT RAIN  58  56  93 W6        29.68R
CAIRO*         MOCLDY    63  58  84 W12       29.70R
MARION         CLOUDY    59  55  88 W7        29.68R
MT. VERNON     CLOUDY    57  48  72 SW6       29.68R
CENTRALIA*     RAIN      57  55  93 SW6       29.67S
SALEM*         CLOUDY    58  58  97 CALM      29.66S
METROPOLIS*    CLOUDY    61  59  93 S5        29.66F
$$

ILZ067-068-072-073-078-083-087-091-250600-
SOUTHEAST ILLINOIS

CITY           SKY/WX    TMP DP  RH WIND       PRES   REMARKS
FLORA*         LGT RAIN  57  56  98 N7        29.65F
FAIRFIELD*     CLOUDY    59  57  94 NE5       29.65F
HARRISBURG*    CLOUDY    61  61 100 SE7       29.66F
ROBINSON*      LGT RAIN  59  56  89 SE7       29.68F
CARMI*         CLOUDY    62  61  97 E6        29.65F
$$

ABBREVIATIONS USED IN REMARKS
   TC - TEMPERATURE IN CELSIUS
  WCI - WIND CHILL INDEX
   HX - HEAT INDEX
  VSB - VISIBILITY
$$




USA.gov is the U.S. government's official web portal to all federal, state and local government web resources and services.